[[{"header":{"parameterUnit":"m.s-1","parameterCategory":1,"la1":30.2991,"la2":30.254,"lo1":-89.0895,"lo2":-89.0444,"dy":0.0017,"dx":0.0017,"nx":28,"ny":28,"refTime":"2025-08-15T03:00:00:Z","depth":0,"parameterNumber":2,"parameterNumberName":"U-component_of_WINDS"},"data":[0,0,0,0,0,0,0,0,0,0,0,0,0,0,0,0,0,0,0,0,0,0,0,0,0,0,0,0,0,0,0,0,0,0,0,0,0,0,0,0,0,0,0,0,0,0,0,0,0,0,0,0,0,0,0,0,0,0,1.2277,1.2278,0,1.2364,1.2365,1.2366,1.2366,1.2365,1.2364,1.2363,1.2452,1.2456,1.2459,0,0,0,0,0,0,0,0,0,0,0,0,0,1.2111,1.2114,1.2277,1.2278,1.2279,1.2364,1.2365,1.2366,1.2366,1.2365,1.2363,1.2362,1.2451,1.2455,1.2459,0,0,0,0,0,0,0,0,0,0,0,0,0,1.2189,1.2115,1.2277,1.2289,1.2291,1.2364,1.2365,1.2367,1.2366,1.2365,1.2363,1.2361,1.245,1.2455,1.246,1.2526,0,0,1.2476,1.2478,0,0,0,0,0,0,0,0,1.2185,1.2195,1.2286,1.2288,1.2291,1.2352,1.234,1.242,1.2367,1.2338,1.2363,1.2361,1.2421,1.2428,1.2448,1.253,1.2534,1.2476,1.2479,1.2482,1.2483,0,0,0,0,0,0,0,1.218,1.2192,1.2311,1.2288,1.229,1.2291,1.23,1.2355,1.2388,1.234,1.234,1.2351,1.2421,1.2443,1.245,1.2536,1.2476,1.2481,1.2484,1.2486,1.2679,1.2681,0,0,0,0,0,0,1.2171,1.2187,1.2309,1.2314,1.2233,1.2295,1.2305,1.2334,1.2387,1.2394,1.2352,1.235,1.2435,1.2444,1.2453,1.2536,1.2482,1.2487,1.2489,1.2677,1.2679,1.2681,0,0,0,0,0,0,1.2168,1.2182,1.2305,1.2251,1.2266,1.23,1.2332,1.2337,1.2359,1.2396,1.2402,1.2368,1.2434,1.2446,1.2509,1.2539,1.2489,1.2494,1.2674,1.2678,1.268,1.2701,0,0,0,0,0,0,1.2163,1.2181,1.2206,1.2251,1.2269,1.2358,1.2334,1.234,1.2368,1.2366,1.2413,1.2419,1.2434,1.2501,1.2514,1.2545,1.2498,1.2672,1.2676,1.2679,1.2697,1.2704,1.271,0,0,0,0,0,1.2157,1.2208,1.2207,1.2222,1.2301,1.236,1.237,1.2386,1.237,1.2396,1.242,1.2417,1.2533,1.2507,1.2522,1.2555,1.267,1.2675,1.2679,1.2695,1.2703,1.2709,0,0,0,0,0,0,1.2165,1.2214,1.2214,1.2281,1.2316,1.236,1.2393,1.2394,1.2435,1.2432,1.245,1.2461,1.2524,1.2546,1.2516,1.2623,1.26,1.2607,1.2607,1.2615,1.2621,1.2614,1.2502,0,0,0,0,0,1.2175,1.2218,1.2258,1.2313,1.2331,1.2359,1.2385,1.2395,1.2432,1.2447,1.2476,1.2513,1.2558,1.2587,1.2631,1.27,1.2711,1.2731,1.2737,1.2742,1.2748,1.2789,1.2798,1.2696,1.2696,1.2696,0,0,1.2195,1.2227,1.2253,1.2316,1.2345,1.239,1.2372,1.242,1.2454,1.2455,1.2516,1.2539,1.2581,1.2648,1.2679,1.2668,1.2779,1.2747,1.2751,1.2755,1.2794,1.2804,1.2812,1.2699,1.2699,1.2698,0,0,1.2255,1.2283,1.2332,1.2362,1.2406,1.2424,1.2436,1.248,1.2495,1.2557,1.2559,1.26,1.2677,1.2707,1.2733,1.2807,1.2806,1.282,1.2852,1.2891,1.2899,1.2907,1.2934,1.2944,1.2826,1.2826,1.2827,0,1.2274,1.2342,1.2358,1.2407,1.2435,1.2438,1.2489,1.2517,1.2573,1.2593,1.258,1.2678,1.2706,1.2781,1.2799,1.282,1.2835,1.2815,1.2897,1.2904,1.2911,1.2938,1.2948,1.2828,1.2828,1.2828,1.2828,0,1.2365,1.2412,1.2447,1.2501,1.2533,1.2583,1.2607,1.2638,1.2645,1.2665,1.2729,1.2763,1.2815,1.2833,1.284,1.291,1.2902,1.2893,1.287,1.2922,1.2948,1.2958,1.283,1.283,1.2829,1.2829,0,0,1.2432,1.2495,1.2508,1.2533,1.2583,1.262,1.267,1.2721,1.2747,1.2786,1.283,1.2895,1.2888,1.2917,1.2927,1.2962,1.302,1.2948,1.295,1.2962,1.3101,1.3108,1.312,1.3019,1.3021,1.3023,1.3098,0,1.2498,1.2588,1.2604,1.2683,1.2728,1.2732,1.2776,1.2811,1.2832,1.2873,1.2896,1.2943,1.2928,1.2946,1.298,1.3005,1.3048,1.3,1.3061,1.3063,1.3052,1.3133,1.314,1.3209,1.3107,1.3109,1.311,0,1.2587,1.2629,1.2712,1.2757,1.2777,1.2816,1.2864,1.2903,1.2944,1.2957,1.299,1.2997,1.3051,1.3025,1.31,1.3067,1.3093,1.311,1.3113,1.312,1.3091,1.3143,1.3231,1.3242,1.3126,1.3125,1.3124,0,1.263,1.2707,1.2767,1.2788,1.2842,1.287,1.2893,1.2932,1.2962,1.3005,1.3024,1.3072,1.3099,1.3136,1.3156,1.3135,1.3231,1.3206,1.3244,1.3243,1.3264,1.3263,1.3359,1.3279,1.3279,1.3279,1.3278,0,1.2703,1.2754,1.2787,1.2824,1.2882,1.2901,1.2958,1.2981,1.3016,1.3058,1.3064,1.3104,1.3128,1.3171,1.3187,1.3248,1.326,1.3272,1.3276,1.3272,1.3271,1.329,1.3287,1.3281,1.3281,1.328,1.328,0,1.2761,1.2785,1.2851,1.2896,1.2909,1.295,1.2989,1.3026,1.3046,1.31,1.3114,1.3146,1.3198,1.3221,1.3285,1.3296,1.3366,1.3366,1.3352,1.3354,1.3391,1.3387,1.3503,1.352,1.3428,1.3429,1.343,0,1.2807,1.2846,1.2896,1.2925,1.2949,1.2996,1.3026,1.3046,1.3078,1.3129,1.316,1.3212,1.3254,1.3337,1.3367,1.3416,1.3418,1.3455,1.3425,1.3421,1.342,1.3418,1.3423,1.3461,1.3462,1.3462,1.3463,0,1.2886,1.2896,1.294,1.2988,1.3025,1.3064,1.3102,1.3126,1.3152,1.3188,1.3241,1.3274,1.334,1.3392,1.3443,1.3468,1.3471,1.3472,1.3484,1.3481,1.3472,1.3479,1.3368,1.347,1.3469,1.3469,1.3468,1.3468,1.294,1.2976,1.3017,1.3066,1.3097,1.3133,1.3171,1.3196,1.3241,1.3296,1.3305,1.3362,1.3403,1.3473,1.35,1.3545,1.3536,1.3553,1.3557,1.3561,1.3564,1.3464,1.3554,1.3554,1.3554,1.3554,1.3554,0,1.3021,1.3048,1.3092,1.3146,1.3185,1.3184,1.3227,1.326,1.331,1.3348,1.339,1.3452,1.3503,1.3537,1.3589,1.3619,1.3621,1.3632,1.363,1.3636,1.3568,1.3554,1.3629,1.3629,1.3629,1.3629,1.3629,1.3629,1.3067,1.3129,1.3144,1.3221,1.3248,1.3304,1.3329,1.3362,1.3393,1.3462,1.3504,1.3526,1.3563,1.3618,1.3665,1.3674,1.3693,1.3704,1.3713,1.3649,1.3641,1.3633,1.362,1.3708,1.3708,1.3777,1.3778,1.3779]},{"header":{"parameterUnit":"m.s-1","parameterCategory":1,"la1":30.2991,"la2":30.254,"lo1":-89.0895,"lo2":-89.0444,"dy":0.0017,"dx":0.0017,"nx":28,"ny":28,"refTime":"2025-08-15T03:00:00:Z","depth":0,"parameterNumber":3,"parameterNumberName":"V-component_of_WINDS"},"data":[0,0,0,0,0,0,0,0,0,0,0,0,0,0,0,0,0,0,0,0,0,0,0,0,0,0,0,0,0,0,0,0,0,0,0,0,0,0,0,0,0,0,0,0,0,0,0,0,0,0,0,0,0,0,0,0,0,0,-1.7019,-1.7019,0,-1.7031,-1.7032,-1.7032,-1.7022,-1.7021,-1.7021,-1.7021,-1.7032,-1.7033,-1.7033,0,0,0,0,0,0,0,0,0,0,0,0,0,-1.6985,-1.6986,-1.7019,-1.7019,-1.7019,-1.7031,-1.7032,-1.7032,-1.7022,-1.7021,-1.7021,-1.702,-1.7032,-1.7032,-1.7033,0,0,0,0,0,0,0,0,0,0,0,0,0,-1.6999,-1.6986,-1.7019,-1.7016,-1.7016,-1.7031,-1.7032,-1.7032,-1.7022,-1.7021,-1.7021,-1.702,-1.7031,-1.7032,-1.7033,-1.7052,0,0,-1.7037,-1.7037,0,0,0,0,0,0,0,0,-1.6998,-1.7,-1.7016,-1.7016,-1.7016,-1.7024,-1.7024,-1.7039,-1.7022,-1.7019,-1.7021,-1.702,-1.703,-1.7031,-1.7035,-1.7053,-1.7053,-1.7037,-1.7037,-1.7038,-1.7038,0,0,0,0,0,0,0,-1.6997,-1.6999,-1.7024,-1.7016,-1.7016,-1.7013,-1.7015,-1.7026,-1.7028,-1.702,-1.7019,-1.7021,-1.703,-1.7034,-1.7035,-1.7053,-1.7037,-1.7038,-1.7038,-1.7039,-1.7088,-1.7089,0,0,0,0,0,0,-1.6997,-1.6999,-1.7023,-1.7024,-1.7005,-1.7014,-1.7016,-1.7022,-1.7028,-1.7028,-1.7021,-1.702,-1.7032,-1.7034,-1.7035,-1.7057,-1.7038,-1.7039,-1.7039,-1.7087,-1.7088,-1.7089,0,0,0,0,0,0,-1.6996,-1.6999,-1.7023,-1.7011,-1.7014,-1.7016,-1.7023,-1.7023,-1.7027,-1.7029,-1.7029,-1.7025,-1.7032,-1.7034,-1.7048,-1.7058,-1.7039,-1.704,-1.7086,-1.7088,-1.7088,-1.7102,0,0,0,0,0,0,-1.6995,-1.6999,-1.7006,-1.7011,-1.7015,-1.7036,-1.7024,-1.7024,-1.7029,-1.7028,-1.7033,-1.7033,-1.7031,-1.7047,-1.7049,-1.7059,-1.7041,-1.7086,-1.7087,-1.7088,-1.7101,-1.7103,-1.7106,0,0,0,0,0,-1.6994,-1.7009,-1.7006,-1.7009,-1.7024,-1.7037,-1.7038,-1.7037,-1.703,-1.7037,-1.7038,-1.7033,-1.7057,-1.7048,-1.7051,-1.7061,-1.7085,-1.7087,-1.7088,-1.71,-1.7103,-1.7106,0,0,0,0,0,0,-1.7004,-1.7009,-1.7007,-1.7024,-1.703,-1.7035,-1.7044,-1.704,-1.7048,-1.7046,-1.7043,-1.7045,-1.706,-1.7062,-1.7053,-1.708,-1.707,-1.7072,-1.7077,-1.7081,-1.7083,-1.7082,-1.7042,0,0,0,0,0,-1.7008,-1.7018,-1.7023,-1.7038,-1.7041,-1.7042,-1.7047,-1.7046,-1.7051,-1.7054,-1.7056,-1.7061,-1.707,-1.7076,-1.7084,-1.7102,-1.7102,-1.711,-1.7112,-1.7114,-1.7116,-1.7125,-1.7129,-1.7094,-1.7094,-1.7094,0,0,-1.7017,-1.7021,-1.7028,-1.704,-1.7044,-1.7054,-1.7044,-1.7055,-1.7062,-1.7055,-1.7069,-1.7071,-1.7077,-1.7093,-1.71,-1.7095,-1.7126,-1.7116,-1.7118,-1.7118,-1.7127,-1.713,-1.7133,-1.7095,-1.7095,-1.7095,0,0,-1.7038,-1.7042,-1.7055,-1.706,-1.7067,-1.7068,-1.7071,-1.7077,-1.7078,-1.7093,-1.7087,-1.7096,-1.7111,-1.7115,-1.7119,-1.7143,-1.7138,-1.7146,-1.7159,-1.7168,-1.717,-1.7173,-1.7181,-1.7184,-1.7148,-1.7148,-1.7148,0,-1.7047,-1.7063,-1.7062,-1.7074,-1.7079,-1.7074,-1.7087,-1.7092,-1.7101,-1.7104,-1.7099,-1.7118,-1.7122,-1.7139,-1.7145,-1.7149,-1.7152,-1.7145,-1.717,-1.7173,-1.7175,-1.7182,-1.7185,-1.7149,-1.7149,-1.7149,-1.7149,0,-1.7074,-1.7085,-1.7095,-1.7104,-1.7111,-1.7123,-1.7124,-1.7131,-1.7129,-1.7131,-1.7145,-1.715,-1.7158,-1.7163,-1.7161,-1.718,-1.7176,-1.7171,-1.716,-1.7179,-1.7186,-1.7189,-1.715,-1.715,-1.7149,-1.7149,0,0,-1.71,-1.711,-1.7114,-1.7118,-1.7126,-1.7134,-1.7146,-1.7156,-1.7161,-1.7168,-1.7178,-1.7191,-1.7186,-1.7191,-1.719,-1.7198,-1.7216,-1.7192,-1.7192,-1.7195,-1.7237,-1.724,-1.7244,-1.7214,-1.7214,-1.7215,-1.7236,0,-1.712,-1.7142,-1.7142,-1.7162,-1.7172,-1.7168,-1.7179,-1.7185,-1.7187,-1.7195,-1.7197,-1.7206,-1.72,-1.7202,-1.7211,-1.7212,-1.7225,-1.7211,-1.7222,-1.7222,-1.7219,-1.7247,-1.7251,-1.7271,-1.7239,-1.7239,-1.724,0,-1.7147,-1.7155,-1.7176,-1.7183,-1.7187,-1.7197,-1.7206,-1.7214,-1.7221,-1.7222,-1.7228,-1.7226,-1.7238,-1.7228,-1.7244,-1.7235,-1.724,-1.7242,-1.7242,-1.7242,-1.7231,-1.7247,-1.7277,-1.728,-1.7244,-1.7244,-1.7243,0,-1.7163,-1.7179,-1.7194,-1.7198,-1.7207,-1.7214,-1.7217,-1.7224,-1.723,-1.7237,-1.7241,-1.725,-1.7255,-1.7262,-1.7262,-1.7255,-1.7278,-1.7269,-1.7278,-1.7278,-1.7282,-1.7282,-1.7312,-1.7287,-1.7287,-1.7287,-1.7287,0,-1.7185,-1.7197,-1.7201,-1.721,-1.7224,-1.7225,-1.7239,-1.7242,-1.7248,-1.7257,-1.7254,-1.7263,-1.7263,-1.7272,-1.7272,-1.7285,-1.7288,-1.7288,-1.7288,-1.7288,-1.7288,-1.729,-1.7288,-1.7288,-1.7288,-1.7288,-1.7288,0,-1.7204,-1.7207,-1.7223,-1.723,-1.7233,-1.7243,-1.7249,-1.7257,-1.726,-1.7271,-1.7274,-1.7277,-1.7288,-1.7289,-1.7301,-1.7301,-1.7317,-1.7315,-1.7314,-1.7314,-1.7323,-1.7322,-1.7355,-1.736,-1.7333,-1.7333,-1.7333,0,-1.7217,-1.7227,-1.7236,-1.7242,-1.7247,-1.7257,-1.7263,-1.7265,-1.7271,-1.728,-1.7288,-1.7298,-1.7306,-1.7322,-1.7325,-1.7334,-1.7333,-1.7344,-1.7334,-1.7334,-1.7332,-1.7331,-1.7332,-1.7345,-1.7346,-1.7346,-1.7346,0,-1.724,-1.7242,-1.7251,-1.7262,-1.7269,-1.7277,-1.7285,-1.729,-1.7292,-1.73,-1.7311,-1.7317,-1.733,-1.734,-1.7349,-1.7352,-1.7349,-1.735,-1.7352,-1.7351,-1.735,-1.735,-1.7318,-1.7348,-1.7348,-1.7348,-1.7348,-1.7348,-1.7256,-1.7265,-1.7273,-1.7284,-1.729,-1.7297,-1.7305,-1.7309,-1.7319,-1.7329,-1.733,-1.7342,-1.7349,-1.7361,-1.7365,-1.7374,-1.737,-1.7374,-1.7375,-1.7376,-1.7376,-1.735,-1.7376,-1.7376,-1.7376,-1.7376,-1.7375,0,-1.7278,-1.7284,-1.7294,-1.7305,-1.7314,-1.7312,-1.732,-1.7327,-1.7338,-1.7345,-1.7353,-1.7366,-1.7376,-1.738,-1.739,-1.7396,-1.7395,-1.7399,-1.7397,-1.7398,-1.7379,-1.7376,-1.7399,-1.7399,-1.7399,-1.7399,-1.7399,-1.7399,-1.7291,-1.7305,-1.7308,-1.7325,-1.733,-1.7343,-1.7348,-1.7354,-1.736,-1.7374,-1.7383,-1.7386,-1.7392,-1.7403,-1.7412,-1.7413,-1.7416,-1.742,-1.742,-1.7402,-1.74,-1.7397,-1.7394,-1.7421,-1.7421,-1.7438,-1.7438,-1.7439]}]]